Location: Wells
(51.2093°N, 2.6446°W)
Time: 17:33:51
(UTC+00:00)

ZACube-1 - Visible Passes

Search period start: 14 March 2026 00:00
Search period end: 24 March 2026 00:00
Orbit: 536 x 596 km, 97.8° (Epoch: 14 March)

Date Brightness Start Highest point End Pass type
(mag) Time Alt. Az. Time Alt. Az. Time Alt. Az.
14 Mar ? 03:40:05 10° NNE 03:43:12 52° N 03:43:12 52° N visible
14 Mar ? 05:16:48 10° NNW 05:18:31 12° NW 05:19:15 12° WNW visible
15 Mar ? 03:40:37 10° NNE 03:43:52 56° N 03:43:52 56° N visible
15 Mar ? 05:17:22 10° NNW 05:19:03 12° NW 05:19:55 12° WNW visible
16 Mar ? 02:08:21 10° ENE 02:08:28 10° ENE 02:08:28 10° ENE visible
16 Mar ? 03:41:08 10° NNE 03:44:31 60° N 03:44:31 60° N visible
16 Mar ? 05:17:56 10° NNW 05:19:33 12° NW 05:20:34 11° WNW visible
17 Mar ? 02:08:50 10° ENE 02:09:07 10° ENE 02:09:07 10° ENE visible
17 Mar ? 03:41:39 10° NNE 03:45:10 65° N 03:45:10 65° N visible
17 Mar ? 05:18:30 10° NNW 05:20:03 12° NW 05:21:12 11° WNW visible
18 Mar ? 02:09:18 10° ENE 02:09:45 11° ENE 02:09:45 11° ENE visible
18 Mar ? 03:42:09 10° NNE 03:45:48 71° N 03:45:48 71° N visible
18 Mar ? 05:19:02 10° NNW 05:20:32 12° NW 05:21:50 10° WNW visible
19 Mar ? 02:09:45 10° ENE 02:10:23 11° ENE 02:10:23 11° ENE visible
19 Mar ? 03:42:39 10° NNE 03:46:25 76° NNW 03:46:25 76° NNW visible
19 Mar ? 05:19:35 10° NNW 05:21:01 12° NW 05:22:27 10° WNW visible
20 Mar ? 02:10:12 10° ENE 02:10:59 11° ENE 02:10:59 11° ENE visible
20 Mar ? 03:43:08 10° NNE 03:47:02 80° NW 03:47:02 80° NW visible
20 Mar ? 05:20:07 10° NW 05:21:29 12° NW 05:22:52 10° WNW visible
21 Mar ? 02:10:39 10° ENE 02:11:36 11° E 02:11:36 11° E visible
21 Mar ? 03:43:37 10° NNE 03:47:37 81° WNW 03:47:38 81° WNW visible
21 Mar ? 05:20:37 10° NW 05:21:57 11° NW 05:23:16 10° WNW visible
22 Mar ? 02:11:06 10° ENE 02:12:11 11° E 02:12:11 11° E visible
22 Mar ? 03:44:05 10° NNE 03:48:05 81° WNW 03:48:14 78° WSW visible
22 Mar ? 05:21:08 10° NW 05:22:24 11° NW 05:23:40 10° WNW visible
23 Mar ? 02:11:31 10° ENE 02:12:46 12° E 02:12:46 12° E visible
23 Mar ? 03:44:33 10° NNE 03:48:31 80° WNW 03:48:49 73° SW visible
23 Mar ? 05:21:38 10° NW 05:22:51 11° NW 05:24:03 10° WNW visible
